Location: Bazugues
(43.4465°N, 0.3432°E)
Time: 15:13:15
(UTC+00:00)

UNK - Pass Details

Date: 12 January 2026
Orbit: 654 x 673 km, 98.4° (Epoch: 18 February)

Event Time Altitude Azimuth Distance (km) Brightness Sun altitude
Rises 17:42:28 0° 9° (N) 2,990 6.8 -10.4°
Reaches altitude 10° 17:44:44 10° 5° (N) 2,073 6.0 -10.8°
Maximum altitude 17:49:08 55° 288° (WNW) 790 4.4 -11.5°
Drops below altitude 10° 17:53:31 10° 211° (SSW) 2,058 7.0 -12.3°
Sets 17:55:45 0° 207° (SSW) 2,966 7.8 -12.7°
